Regional Weather Roundup
Issued by NWS Green Bay, WI

Home | Current Version | Previous Version | Graphics & Text | Print | Product List | Glossary Off
Versions: 1 2 3 4 5 6 7 8 9 10 11 12 13 14 15 16 17 18 19 20 21 22 23 24 25 26 27 28 29 30 31 32 33 34 35 36 37 38 39 40 41 42 43 44 45 46 47 48 49 50

000
ASUS43 KGRB 282111
RWRGRB

NORTH-CENTRAL AND NORTHEAST WISCONSIN REGIONAL WEATHER ROUNDUP
NATIONAL WEATHER SERVICE GREEN BAY WI
400 PM CDT THU APR 28 2016

WIZ005-009-010>012-018-019-282200-
NORTH CENTRAL WISCONSIN

CITY           SKY/WX    TMP DP  RH WIND       PRES   REMARKS
IRONWOOD       MOSUNNY   46  30  53 N9        30.03S
MANITOWISH WTR PTSUNNY   53  20  27 SE5       30.01F
ARBOR VITAE    MOSUNNY   54  18  24 NE3       30.01S
EAGLE RIVER    MOSUNNY   55  19  24 E7        30.00F
LAND O LAKES   MOSUNNY   54  19  25 SE8       30.02F
RHINELANDER    PTSUNNY   53  20  27 E9        30.01S
PHILLIPS       CLOUDY    54  22  27 E3        29.99F
ANTIGO         CLOUDY    48  26  41 E12       30.01F
TOMAHAWK       CLOUDY    54  19  25 E5        30.01S
MERRILL        PTSUNNY   51  27  38 SE13      30.01S
$$

WIZ013-073-282200-
NORTHEAST WISCONSIN

CITY           SKY/WX    TMP DP  RH WIND       PRES   REMARKS
IRON MOUNTAIN  SUNNY     54  20  26 E5        30.02F
MARINETTE      CLOUDY    43  30  61 NE13      30.06S
OCONTO         CLOUDY    44  31  59 NE5       30.05S
$$

WIZ017-030-035>037-045-282200-
CENTRAL WISCONSIN

CITY           SKY/WX    TMP DP  RH WIND       PRES   REMARKS
MEDFORD        CLOUDY    43  31  63 SE8       30.01S
WAUSAU         LGT RAIN  42  34  73 SE7       30.02R
MOSINEE        LGT RAIN  39  37  93 SE8       30.04S
MARSHFIELD     LGT RAIN  40  35  83 E14       30.00S
WISC RAPIDS    LGT RAIN  39  36  89 E12       30.02F
STEVENS POINT  LGT RAIN  37  34  90 NE7       30.02F
WAUPACA        CLOUDY    44  35  72 NE5       30.02F
SHAWANO        CLOUDY    45  32  59 NE7       30.04S
CLINTONVILLE   CLOUDY    43  32  65 NE13      30.03S
WAUTOMA        NOT AVBL
$$

WIZ038-039-048-051-282200-
FOX VALLEY

CITY           SKY/WX    TMP DP  RH WIND       PRES   REMARKS
NWS GREEN BAY  CLOUDY    47  28  47 E12       30.03S
APPLETON       CLOUDY   N/A N/A N/A E7        30.00S
OSHKOSH        CLOUDY    44  33  65 NE9       29.99F
FOND DU LAC    CLOUDY    43  33  68 E16G23    29.99F
$$

WIZ022-050-052-282200-
EAST CENTRAL WISCONSIN

CITY           SKY/WX    TMP DP  RH WIND       PRES   REMARKS
EPHRAIM        CLOUDY    43  28  56 E12       30.05S
STURGEON BAY   CLOUDY    43  27  52 NE10      30.07F
MANITOWOC      CLOUDY    42  34  73 E20G29    30.03S
SHEBOYGAN      CLOUDY    42  32  67 NE13      30.00F
$$

LMZ563-521-522-541>543-282200-
LAKESHORE

STATION/POSITION TIME  TEMP    WIND        PRES    VSBY  WAVE
                       AIR SEA DIR/SP/G                  HT/PER
                 (UTC) (F)     (DEG/KT/KT) (MB)    (MI)  (FT/S)
SHEBOYGAN LKSHOR 2100   40      30/ 14/ 15 1016.9F
KEWAUNEE LKSHORE 2000   41      50/  9/ 12 1016.9S
NORTHPORT PIER   2000   41      60/ 10/ 14 1018.3S
N MID LAKE BUOY  2050   40 38   50/ 12/ 14 1018.0F         2/ 3
CHAMBERS ISLAND  2040   40      20/ 11/ 12 1017.9F
MENOMINEE LKSHOR 2000   40      20/ 14/ 17 1016.9F
$$



USA.gov is the U.S. government's official web portal to all federal, state and local government web resources and services.